This demonstration page uses our WeatherBlox Daily Observations layout. Learn more.

38.88101, -77.10428

Hourly Observations for March 19, 2016

Temp ( °F °C ) Dew Point ( °F °C ) Humidity (%) Winds ( mph kmh ) Pressure ( in mb ) Visibility ( mi km ) Precip ( " mm )
12:52 am 00:52 Clear 58 14.4 21 -6.1 24 24 WNW 12 19 29.97 1015 10 16.09344 0 0
1:52 am 01:52 Partly Cloudy 53 11.7 25 -3.9 34 34 N 13 20 30 1016 10 16.09344 0 0
2:52 am 02:52 Mostly Cloudy 51 10.6 26 -3.3 38 38 N 16 26 30.03 1017 10 16.09344 0 0
3:52 am 03:52 Clear 50 10 28 -2.2 43 43 NNE 16 26 30.03 1017 10 16.09344 0 0
4:52 am 04:52 Partly Cloudy 48 8.9 30 -1.1 50 50 NNE 9 15 30.06 1018 10 16.09344 0 0
5:52 am 05:52 Cloudy 47 8.3 31 -0.6 54 54 ENE 12 19 30.06 1018 10 16.09344 0 0
6:52 am 06:52 Mostly Cloudy 46 7.8 31 -0.6 56 56 ENE 9 15 30.09 1019 10 16.09344 0 0
7:52 am 07:52 Cloudy 46 7.8 32 0 58 58 ENE 12 19 30.12 1020 10 16.09344 0 0
8:52 am 08:52 Cloudy 45 7.2 32 0 61 61 NE 12 19 30.15 1021 10 16.09344 0 0
9:52 am 09:52 Cloudy 46 7.8 32 0 58 58 NE 17 28 30.12 1020 10 16.09344 0 0
10:52 am 10:52 Cloudy 45 7.2 31 -0.6 58 58 NNE 14 22 30.12 1020 10 16.09344 0 0
11:52 am 11:52 Cloudy with Light Rain 44 6.7 33 0.6 65 65 ENE 12 19 30.12 1020 10 16.09344 0.001 0.001
12:37 pm 12:37 Cloudy with Light Rain 42 5.6 35 1.7 76 76 ENE 10 17 30.12 1020 10 16.09344 0.04 1.016
12:52 pm 12:52 Cloudy 42 5.6 35 1.7 76 76 ENE 12 19 30.12 1020 10 16.09344 0.04 1.016
1:52 pm 13:52 Cloudy with Light Rain 42 5.6 36 2.2 79 79 NE 8 13 30.12 1020 10 16.09344 0.001 0.001
2:52 pm 14:52 Cloudy with Light Rain 41 5 35 1.7 79 79 NE 9 15 30.09 1019 10 16.09344 0.01 0.254
3:19 pm 15:19 Cloudy with Light Rain 40 4.4 36 2.2 86 86 NE 13 20 30.09 1019 10 16.09344 0.01 0.254
3:34 pm 15:34 Cloudy with Light Rain 39 4 36 2 87 87 NE 10 17 30.09 1019 8 12.874752 0 0
3:40 pm 15:40 Cloudy with Light Rain 39 4 36 2 87 87 ENE 10 17 30.09 1019 10 16.09344 0 0
3:52 pm 15:52 Cloudy with Light Rain 40 4.4 35 1.7 83 83 ENE 10 17 30.09 1019 10 16.09344 0.02 0.508
4:44 pm 16:44 Cloudy with Light Rain 39 4 36 2 87 87 ENE 13 20 30.06 1018 10 16.09344 0 0
4:52 pm 16:52 Cloudy with Light Rain 39 3.9 35 1.7 86 86 NE 12 19 30.06 1018 10 16.09344 0.01 0.254
5:15 pm 17:15 Cloudy 40 4.4 35 1.7 83 83 NNE 10 17 30.09 1019 10 16.09344 0.001 0.001
6:02 pm 18:02 Cloudy with Light Rain 39 4 36 2 87 87 NNE 8 13 30.12 1020 10 16.09344 0 0
6:29 pm 18:29 Cloudy with Light Rain 38 3.3 35 1.7 89 89 NE 10 17 30.09 1019 9 14.484096 0.02 0.508
6:52 pm 18:52 Cloudy with Light Rain/Snow 38 3.3 35 1.7 89 89 NE 10 17 30.09 1019 10 16.09344 0.03 0.762
7:03 pm 19:03 Cloudy with Light Rain/Snow 37 3 36 2 93 93 NE 12 19 30.09 1019 10 16.09344 0 0
7:39 pm 19:39 Cloudy with Light Rain 38 3.3 35 1.7 89 89 N 12 19 30.09 1019 10 16.09344 0.001 0.001
7:52 pm 19:52 Cloudy 38 3.3 35 1.7 89 89 N 10 17 30.12 1020 10 16.09344 0.001 0.001
8:33 pm 20:33 Cloudy with Light Rain/Snow 38 3.3 34 1.1 86 86 NNE 10 17 30.12 1020 10 16.09344 0.001 0.001
8:52 pm 20:52 Cloudy with Light Rain/Snow 38 3.3 34 1.1 86 86 N 10 17 30.12 1020 10 16.09344 0.001 0.001
8:59 pm 20:59 Cloudy with Light Rain/Snow 38 3.3 34 1.1 86 86 NE 13 20 30.12 1020 10 16.09344 0.001 0.001
9:05 pm 21:05 Cloudy 38 3.3 34 1.1 86 86 NNE 10 17 30.12 1020 10 16.09344 0.001 0.001
10:29 pm 22:29 Cloudy 38 3.3 34 1.1 86 86 NNE 9 15 30.12 1020 10 16.09344 0 0
10:52 pm 22:52 Cloudy with Light Rain/Snow 38 3.3 33 0.6 83 83 NNE 10 17 30.12 1020 10 16.09344 0.001 0.001

Powered by AerisWeather